timestamp,wind_dir_avg,wind_spd_avg,wind_spd_max_dir,wind_spd_gust,battery_voltage,lat,long
2024-01-29 00:04:00+00:00,300.0,5.85,288.0,9.55,12.17,47.59359,-54.27349
2024-01-29 00:14:00+00:00,294.0,6.03,292.0,9.33,12.09,47.59359,-54.27349
2024-01-29 00:24:00+00:00,300.0,4.89,302.0,5.42,12.09,47.59359,-54.27349
2024-01-29 00:34:00+00:00,310.0,5.89,294.0,8.9,12.09,47.59359,-54.27349
2024-01-29 00:44:00+00:00,278.0,5.93,274.0,8.5,12.09,47.59359,-54.27349
2024-01-29 00:54:00+00:00,284.0,4.3,283.0,6.95,12.09,47.59359,-54.27349
2024-01-29 01:04:00+00:00,273.0,4.74,265.0,7.85,12.09,47.59359,-54.27349
2024-01-29 01:14:00+00:00,278.0,4.79,277.0,5.99,12.09,47.59359,-54.27349
2024-01-29 01:24:00+00:00,280.0,8.22,283.0,9.32,12.09,47.59359,-54.27349
2024-01-29 01:34:00+00:00,275.0,5.44,275.0,7.57,12.09,47.59359,-54.27349
2024-01-29 01:44:00+00:00,278.0,7.01,280.0,9.19,12.09,47.59359,-54.27349
2024-01-29 01:54:00+00:00,283.0,4.61,282.0,5.58,12.09,47.59359,-54.27349
2024-01-29 02:04:00+00:00,303.0,5.36,293.0,7.31,12.09,47.59359,-54.27349
2024-01-29 02:14:00+00:00,315.0,5.42,314.0,6.1,12.09,47.59359,-54.27349
2024-01-29 02:24:00+00:00,303.0,3.84,301.0,5.02,12.09,47.59359,-54.27349
2024-01-29 02:34:00+00:00,297.0,5.51,288.0,7.44,12.09,47.59359,-54.27349
2024-01-29 02:44:00+00:00,303.0,4.3,303.0,4.98,12.09,47.59359,-54.27349
2024-01-29 02:54:00+00:00,285.0,3.56,290.0,4.35,12.09,47.59359,-54.27349
2024-01-29 03:04:00+00:00,277.0,3.44,284.0,4.04,12.09,47.59359,-54.27349
2024-01-29 03:14:00+00:00,278.0,3.36,283.0,3.86,12.01,47.59359,-54.27349
2024-01-29 03:24:00+00:00,279.0,3.37,278.0,3.87,12.01,47.59359,-54.27349
2024-01-29 03:34:00+00:00,250.0,4.09,251.0,4.48,12.01,47.59359,-54.27349
2024-01-29 03:44:00+00:00,269.0,3.65,274.0,4.38,12.01,47.59359,-54.27349
2024-01-29 03:54:00+00:00,260.0,3.61,260.0,3.94,12.01,47.59359,-54.27349
2024-01-29 04:04:00+00:00,262.0,3.47,270.0,4.33,12.01,47.59359,-54.27349
2024-01-29 04:14:00+00:00,261.0,3.62,257.0,4.09,12.01,47.59359,-54.27349
2024-01-29 04:24:00+00:00,252.0,4.6,251.0,5.02,12.01,47.59359,-54.27349
2024-01-29 04:34:00+00:00,245.0,3.75,247.0,4.43,12.01,47.59359,-54.27349
2024-01-29 04:44:00+00:00,255.0,3.58,256.0,3.86,12.01,47.59359,-54.27349
2024-01-29 04:54:00+00:00,249.0,3.7,240.0,4.08,12.01,47.59359,-54.27349
2024-01-29 05:04:00+00:00,264.0,3.63,267.0,4.04,12.01,47.59359,-54.27349
2024-01-29 05:14:01+00:00,259.0,3.04,262.0,3.45,12.01,47.59359,-54.27349
2024-01-29 05:24:01+00:00,256.0,3.16,251.0,3.55,12.01,47.59359,-54.27349
2024-01-29 05:34:01+00:00,260.0,2.96,256.0,3.6,12.01,47.59359,-54.27349
2024-01-29 05:44:01+00:00,248.0,3.7,252.0,3.98,12.01,47.59359,-54.27349
2024-01-29 05:54:01+00:00,249.0,3.75,249.0,4.16,12.01,47.59359,-54.27349
2024-01-29 06:04:01+00:00,253.0,3.74,256.0,4.08,12.01,47.59359,-54.27349
2024-01-29 06:14:01+00:00,264.0,3.66,264.0,3.94,12.01,47.59359,-54.27349
2024-01-29 06:24:01+00:00,266.0,3.2,267.0,3.53,12.01,47.59359,-54.27349
2024-01-29 06:34:01+00:00,250.0,3.65,254.0,4.01,12.01,47.59359,-54.27349
2024-01-29 06:44:01+00:00,271.0,3.51,273.0,3.75,12.01,47.59359,-54.27349
2024-01-29 06:54:01+00:00,262.0,3.14,262.0,3.38,12.01,47.59359,-54.27349
2024-01-29 07:04:01+00:00,280.0,3.1,277.0,3.53,12.01,47.59359,-54.27349
2024-01-29 07:14:00+00:00,308.0,2.95,312.0,3.42,11.93,47.59359,-54.27349
2024-01-29 07:24:00+00:00,303.0,1.93,305.0,2.82,11.93,47.59359,-54.27349
2024-01-29 07:34:00+00:00,289.0,3.39,290.0,3.71,11.93,47.59359,-54.27349
2024-01-29 07:44:00+00:00,282.0,1.57,286.0,1.94,11.93,47.59359,-54.27349
2024-01-29 07:54:00+00:00,254.0,1.48,251.0,1.82,11.93,47.59359,-54.27349
2024-01-29 08:04:00+00:00,255.0,1.27,257.0,1.83,11.93,47.59359,-54.27349
2024-01-29 08:14:00+00:00,266.0,2.22,274.0,2.84,11.93,47.59359,-54.27349
2024-01-29 08:24:00+00:00,253.0,1.56,258.0,2.11,11.93,47.59359,-54.27349
2024-01-29 08:34:00+00:00,241.0,1.01,254.0,2.07,11.93,47.59359,-54.27349
2024-01-29 08:44:00+00:00,268.0,1.28,259.0,1.66,11.93,47.59359,-54.27349
2024-01-29 08:54:00+00:00,186.0,0.84,179.0,1.11,11.93,47.59359,-54.27349
2024-01-29 09:04:00+00:00,149.0,2.11,156.0,2.31,11.93,47.59359,-54.27349
2024-01-29 09:14:00+00:00,67.0,0.9,68.0,1.34,11.93,47.59359,-54.27349
2024-01-29 09:24:00+00:00,102.0,1.05,99.0,1.31,11.93,47.59359,-54.27349
2024-01-29 09:34:00+00:00,199.0,0.61,229.0,0.84,11.93,47.59359,-54.27349
2024-01-29 09:44:00+00:00,135.0,0.54,131.0,0.88,11.93,47.59359,-54.27349
2024-01-29 09:54:00+00:00,168.0,1.51,162.0,1.71,11.93,47.59359,-54.27349
2024-01-29 10:04:00+00:00,156.0,2.01,152.0,2.48,11.93,47.59359,-54.27349
2024-01-29 10:14:00+00:00,154.0,1.65,149.0,2.0,11.93,47.59359,-54.27349
2024-01-29 10:24:00+00:00,201.0,1.65,204.0,1.95,11.93,47.59359,-54.27349
2024-01-29 10:34:00+00:00,168.0,0.87,174.0,1.01,11.93,47.59359,-54.27349
2024-01-29 10:44:00+00:00,254.0,0.66,258.0,1.09,11.93,47.59359,-54.27349
2024-01-29 10:54:00+00:00,153.0,1.43,141.0,1.87,11.93,47.59359,-54.27349
2024-01-29 11:04:00+00:00,147.0,1.31,125.0,2.23,11.93,47.59359,-54.27349
2024-01-29 11:14:00+00:00,149.0,2.11,136.0,2.59,11.93,47.59359,-54.27349
2024-01-29 11:24:00+00:00,141.0,2.35,140.0,2.83,11.93,47.59359,-54.27349
2024-01-29 11:34:00+00:00,132.0,2.0,121.0,2.51,11.93,47.59359,-54.27349
2024-01-29 11:44:00+00:00,130.0,2.32,123.0,2.71,11.93,47.59359,-54.27349
2024-01-29 11:54:00+00:00,127.0,2.09,128.0,2.82,11.93,47.59359,-54.27349
2024-01-29 12:04:00+00:00,131.0,2.46,125.0,3.23,11.93,47.59359,-54.27349
2024-01-29 12:14:00+00:00,42.0,5.83,56.0,11.11,11.93,47.59359,-54.27349
2024-01-29 12:24:00+00:00,40.0,10.01,43.0,11.49,11.93,47.59359,-54.27349
2024-01-29 12:34:00+00:00,35.0,8.99,45.0,9.82,11.93,47.59359,-54.27349
2024-01-29 12:44:00+00:00,47.0,9.09,40.0,10.66,11.93,47.59359,-54.27349
2024-01-29 12:54:00+00:00,42.0,9.94,44.0,11.96,11.93,47.59359,-54.27349
2024-01-29 13:04:00+00:00,40.0,9.61,43.0,11.51,11.93,47.59359,-54.27349
2024-01-29 13:14:00+00:00,47.0,9.6,46.0,10.88,11.93,47.59359,-54.27349
2024-01-29 13:24:00+00:00,43.0,9.14,47.0,10.33,11.93,47.59359,-54.27349
2024-01-29 13:34:00+00:00,37.0,8.81,49.0,10.49,11.93,47.59359,-54.27349
2024-01-29 13:44:00+00:00,46.0,10.07,46.0,11.23,11.93,47.59359,-54.27349
2024-01-29 13:54:00+00:00,43.0,9.2,46.0,10.84,11.93,47.59359,-54.27349
2024-01-29 14:04:00+00:00,39.0,8.27,46.0,10.23,11.93,47.59359,-54.27349
2024-01-29 14:14:00+00:00,44.0,8.56,51.0,9.83,11.93,47.59359,-54.27349
2024-01-29 14:24:00+00:00,57.0,8.54,54.0,9.9,11.93,47.59359,-54.27349
2024-01-29 14:34:00+00:00,62.0,8.87,72.0,12.4,11.93,47.59359,-54.27349
2024-01-29 14:44:00+00:00,66.0,11.49,73.0,14.35,11.93,47.59359,-54.27349
2024-01-29 14:54:00+00:00,59.0,9.16,55.0,10.78,11.93,47.59359,-54.27349
2024-01-29 15:04:00+00:00,49.0,10.77,57.0,14.27,11.93,47.59359,-54.27349
2024-01-29 15:14:00+00:00,53.0,10.97,59.0,14.54,11.93,47.59359,-54.27349
2024-01-29 15:24:00+00:00,60.0,9.72,68.0,13.9,11.93,47.59359,-54.27349
2024-01-29 15:34:00+00:00,59.0,13.49,59.0,15.5,11.93,47.59359,-54.27349
2024-01-29 15:44:00+00:00,57.0,13.21,56.0,15.81,11.93,47.59359,-54.27349
2024-01-29 15:54:00+00:00,57.0,14.74,57.0,16.47,11.93,47.59359,-54.27349
2024-01-29 16:04:00+00:00,52.0,13.43,59.0,16.14,11.93,47.59359,-54.27349
2024-01-29 16:14:00+00:00,52.0,14.49,51.0,17.36,12.01,47.59359,-54.27349
2024-01-29 16:24:00+00:00,51.0,15.75,53.0,17.28,12.01,47.59359,-54.27349
2024-01-29 16:34:00+00:00,56.0,14.05,58.0,16.25,12.01,47.59359,-54.27349
2024-01-29 16:44:00+00:00,48.0,13.07,55.0,16.57,12.01,47.59359,-54.27349
2024-01-29 16:54:00+00:00,51.0,13.84,54.0,16.95,12.01,47.59359,-54.27349
2024-01-29 17:04:00+00:00,50.0,13.57,46.0,16.48,12.01,47.59359,-54.27349
2024-01-29 17:14:00+00:00,52.0,14.47,51.0,17.13,11.86,47.59359,-54.27349
2024-01-29 17:24:00+00:00,47.0,12.75,53.0,15.55,11.86,47.59359,-54.27349
2024-01-29 17:34:00+00:00,49.0,13.89,54.0,16.06,11.86,47.59359,-54.27349
2024-01-29 17:44:00+00:00,38.0,12.0,47.0,15.58,11.86,47.59359,-54.27349
2024-01-29 17:54:00+00:00,40.0,12.34,45.0,15.89,11.86,47.59359,-54.27349
2024-01-29 18:04:00+00:00,46.0,13.91,54.0,16.48,11.86,47.59359,-54.27349
2024-01-29 18:14:00+00:00,38.0,12.3,45.0,14.44,11.86,47.59359,-54.27349
2024-01-29 18:24:00+00:00,41.0,12.5,46.0,16.13,11.86,47.59359,-54.27349
2024-01-29 18:34:00+00:00,47.0,15.58,49.0,17.31,11.86,47.59359,-54.27349
2024-01-29 18:44:00+00:00,44.0,14.99,45.0,17.46,11.86,47.59359,-54.27349
2024-01-29 18:54:00+00:00,46.0,15.47,43.0,17.43,11.86,47.59359,-54.27349
2024-01-29 19:04:00+00:00,42.0,16.85,41.0,18.19,11.86,47.59359,-54.27349
2024-01-29 19:14:00+00:00,43.0,15.74,41.0,18.0,11.86,47.59359,-54.27349
2024-01-29 19:24:00+00:00,45.0,15.43,50.0,19.12,11.86,47.59359,-54.27349
2024-01-29 19:34:00+00:00,42.0,16.13,40.0,17.95,11.86,47.59359,-54.27349
2024-01-29 19:44:00+00:00,40.0,16.58,45.0,18.3,11.86,47.59359,-54.27349
2024-01-29 19:54:00+00:00,41.0,17.08,37.0,18.95,11.86,47.59359,-54.27349
2024-01-29 20:04:00+00:00,45.0,15.71,47.0,17.74,11.86,47.59359,-54.27349
2024-01-29 20:14:00+00:00,41.0,16.49,41.0,19.93,11.77,47.59359,-54.27349
2024-01-29 20:24:00+00:00,42.0,17.36,48.0,20.62,11.77,47.59359,-54.27349
2024-01-29 20:34:00+00:00,39.0,17.23,44.0,20.78,11.77,47.59359,-54.27349
2024-01-29 20:44:00+00:00,39.0,17.3,37.0,20.23,11.77,47.59359,-54.27349
2024-01-29 20:54:00+00:00,35.0,18.39,32.0,21.06,11.77,47.59359,-54.27349
2024-01-29 21:04:00+00:00,42.0,16.28,34.0,19.09,11.77,47.59359,-54.27349
2024-01-29 21:14:00+00:00,36.0,17.18,32.0,21.52,11.77,47.59359,-54.27349
2024-01-29 21:24:00+00:00,40.0,16.95,45.0,20.63,11.77,47.59359,-54.27349
2024-01-29 21:34:00+00:00,35.0,19.07,41.0,22.81,11.77,47.59359,-54.27349
2024-01-29 21:44:00+00:00,37.0,17.31,29.0,20.7,11.77,47.59359,-54.27349
2024-01-29 21:54:00+00:00,43.0,19.32,42.0,23.07,11.77,47.59359,-54.27349
2024-01-29 22:04:00+00:00,34.0,18.7,32.0,20.89,11.77,47.59359,-54.27349
2024-01-29 22:14:00+00:00,37.0,18.83,38.0,22.64,11.77,47.59359,-54.27349
2024-01-29 22:24:00+00:00,38.0,17.34,32.0,21.06,11.77,47.59359,-54.27349
2024-01-29 22:34:00+00:00,37.0,17.42,38.0,21.44,11.77,47.59359,-54.27349
2024-01-29 22:44:00+00:00,35.0,19.91,38.0,23.55,11.77,47.59359,-54.27349
2024-01-29 22:54:00+00:00,41.0,18.46,40.0,21.1,11.77,47.59359,-54.27349
2024-01-29 23:04:00+00:00,36.0,19.32,36.0,22.89,11.77,47.59359,-54.27349
2024-01-29 23:14:00+00:00,35.0,16.56,43.0,20.35,11.77,47.59359,-54.27349
2024-01-29 23:24:00+00:00,34.0,16.66,30.0,19.9,11.77,47.59359,-54.27349
2024-01-29 23:34:00+00:00,33.0,18.79,35.0,22.08,11.77,47.59359,-54.27349
2024-01-29 23:44:00+00:00,25.0,19.07,30.0,22.06,11.77,47.59359,-54.27349
2024-01-29 23:54:00+00:00,23.0,16.63,18.0,19.93,11.77,47.59359,-54.27349
